Regional Weather Roundup
Issued by NWS Goodland, KS

Home | Current Version | Previous Version | Text Only | Print | Product List | Glossary On
Versions: 1 2 3 4 5 6 7 8 9 10 11 12 13 14 15 16 17 18 19 20 21 22 23 24 25 26 27 28 29 30 31 32 33 34 35 36 37 38 39 40 41 42 43 44 45 46 47 48 49 50
000
ASUS43 KGLD 070708
RWRGLD

GOODLAND FORECAST AREA HOURLY WEATHER ROUNDUP
NATIONAL WEATHER SERVICE GOODLAND KS
100 AM MDT TUE JUL 07 2015

...OFFICIAL OBSERVATIONS...

CITY           SKY/WX    TMP DP  RH WIND       PRES   REMARKS
GOODLAND KS    CLOUDY    62  52  69 E7        30.24R
HILL CITY KS   MOCLDY    63  56  78 N9        30.16R HAZE
IMPERIAL NEB   MOCLDY    62  53  72 NE6       30.22F
MCCOOK NEB     MOCLDY    59  54  83 N3        30.20R HAZE
AKRON CO       CLOUDY    61  52  72 E10       30.27F HAZE
BURLINGTON CO  CLOUDY    62  53  72 E7        30.27R HAZE
LIMON CO       CLOUDY    57  51  80 E6        30.31S HAZE
$$

...UNOFFICIAL OBSERVATIONS...

CITY           SKY/WX    TMP DP  RH WIND       PRES   REMARKS
COLBY KS       CLEAR     63  55  77 N6        30.23S
GOVE KS          N/A     64  32  30 MISG        N/A
NORTON KS      CLEAR     55  48  76 N6        30.17R
SHARON SPRINGS   N/A     64  54  69 NE7         N/A
KIT CARSON CO    N/A     62  54  75 MISG        N/A
YUMA CO          N/A     62  53  73 CALM        N/A
$$


USA.gov is the U.S. government's official web portal to all federal, state and local government web resources and services.